THA1123 VTUU-VTBD

Flight info

Callsign THA1123
Flight time 0h 47m
Altitude 34000
Route ASABO1A ASABO Y20 UBLOD ENDUU3A
Aircraft A346/H-SDE2E3FGHIJ3J4J5M1RWXY/LB1D1

Departure

Time 2026-05-07 07:42
Airport Ubon Ratchathani Airport (VTUU)

Arrival

Time 2026-05-07 08:30
Airport Don Mueang International Airport (VTBD)
Time Latitude Longitude Altitude Speed Heading
2026-05-07 07:27 15.24737 104.86973 414 ft 0 kts 141°
2026-05-07 07:33 15.24777 104.86941 413 ft 0 kts 100°
2026-05-07 07:34 15.24774 104.86944 414 ft 0 kts 53°
2026-05-07 07:36 15.24776 104.86947 414 ft 2 kts 53°
2026-05-07 07:36 15.24790 104.86966 414 ft 5 kts 52°
2026-05-07 07:37 15.24820 104.87001 408 ft 7 kts 33°
2026-05-07 07:37 15.24877 104.87000 412 ft 10 kts 327°
2026-05-07 07:37 15.24940 104.86952 414 ft 12 kts 323°
2026-05-07 07:37 15.25018 104.86923 406 ft 13 kts 18°
2026-05-07 07:38 15.25092 104.86991 407 ft 16 kts 51°
2026-05-07 07:38 15.25166 104.87088 407 ft 18 kts 51°
2026-05-07 07:38 15.25253 104.87199 413 ft 21 kts 51°
2026-05-07 07:38 15.25349 104.87322 406 ft 23 kts 51°
2026-05-07 07:39 15.25452 104.87456 410 ft 25 kts 51°
2026-05-07 07:39 15.25564 104.87600 407 ft 26 kts 51°
2026-05-07 07:39 15.25684 104.87755 412 ft 29 kts 51°
2026-05-07 07:39 15.25803 104.87910 408 ft 24 kts 52°
2026-05-07 07:40 15.25877 104.88030 409 ft 12 kts 78°
2026-05-07 07:40 15.25908 104.88105 411 ft 10 kts 36°
2026-05-07 07:40 15.25927 104.88092 408 ft 5 kts 265°
2026-05-07 07:40 15.25908 104.88048 404 ft 8 kts 239°
2026-05-07 07:41 15.25888 104.88019 401 ft 0 kts 232°
2026-05-07 07:41 15.25849 104.87969 411 ft 34 kts 231°
2026-05-07 07:41 15.25560 104.87596 413 ft 98 kts 231°
2026-05-07 07:41 15.25010 104.86884 411 ft 153 kts 231°
2026-05-07 07:42 15.24282 104.85944 689 ft 173 kts 230°
2026-05-07 07:42 15.23522 104.84948 1254 ft 178 kts 231°
2026-05-07 07:42 15.22753 104.83925 1883 ft 181 kts 231°
2026-05-07 07:42 15.21962 104.82886 2464 ft 187 kts 231°
2026-05-07 07:43 15.21113 104.81786 2784 ft 202 kts 231°
2026-05-07 07:43 15.20202 104.80611 3139 ft 216 kts 231°
2026-05-07 07:43 15.19227 104.79354 3465 ft 232 kts 231°
2026-05-07 07:43 15.18174 104.77998 3787 ft 250 kts 231°
2026-05-07 07:44 15.17070 104.76576 4417 ft 254 kts 231°
2026-05-07 07:44 15.15960 104.75147 5176 ft 255 kts 231°
2026-05-07 07:44 15.14842 104.73707 5921 ft 258 kts 231°
2026-05-07 07:44 15.13705 104.72244 6613 ft 263 kts 230°
2026-05-07 07:45 15.12550 104.70759 7301 ft 266 kts 230°
2026-05-07 07:45 15.11429 104.69211 7988 ft 271 kts 242°
2026-05-07 07:45 15.10956 104.67327 8647 ft 276 kts 271°
2026-05-07 07:45 15.11325 104.65340 9132 ft 288 kts 288°
2026-05-07 07:46 15.11943 104.63310 9616 ft 301 kts 289°
2026-05-07 07:46 15.12589 104.61223 10200 ft 306 kts 288°
2026-05-07 07:46 15.13240 104.59084 10667 ft 318 kts 288°
2026-05-07 07:46 15.13913 104.56832 10964 ft 335 kts 288°
2026-05-07 07:47 15.14599 104.54509 11334 ft 347 kts 287°
2026-05-07 07:47 15.15303 104.52104 11931 ft 350 kts 287°
2026-05-07 07:47 15.16021 104.49647 12596 ft 353 kts 287°
2026-05-07 07:47 15.16734 104.47202 13230 ft 356 kts 287°
2026-05-07 07:48 15.17443 104.44767 13836 ft 359 kts 287°
2026-05-07 07:48 15.18169 104.42275 14395 ft 362 kts 287°
2026-05-07 07:48 15.18898 104.39767 14941 ft 365 kts 287°
2026-05-07 07:48 15.19587 104.37224 15478 ft 368 kts 282°
2026-05-07 07:49 15.19979 104.34592 16007 ft 372 kts 274°
2026-05-07 07:49 15.20018 104.31869 16317 ft 385 kts 266°
2026-05-07 07:49 15.19813 104.29048 16581 ft 400 kts 264°
2026-05-07 07:49 15.19554 104.26126 16831 ft 413 kts 264°
2026-05-07 07:50 15.19285 104.23129 17257 ft 421 kts 264°
2026-05-07 07:50 15.19017 104.20090 17843 ft 425 kts 264°
2026-05-07 07:50 15.18751 104.17031 18377 ft 428 kts 264°
2026-05-07 07:50 15.18486 104.13949 18850 ft 431 kts 264°
2026-05-07 07:51 15.18219 104.10833 19335 ft 435 kts 264°
2026-05-07 07:51 15.17952 104.07700 19819 ft 438 kts 264°
2026-05-07 07:51 15.17683 104.04545 20306 ft 441 kts 265°
2026-05-07 07:51 15.17412 104.01370 20767 ft 444 kts 265°
2026-05-07 07:52 15.17138 103.98161 21250 ft 447 kts 265°
2026-05-07 07:52 15.16863 103.94937 21707 ft 450 kts 265°
2026-05-07 07:52 15.16585 103.91693 22167 ft 453 kts 265°
2026-05-07 07:52 15.16305 103.88433 22617 ft 456 kts 265°
2026-05-07 07:53 15.16023 103.85149 23050 ft 459 kts 265°
2026-05-07 07:53 15.15738 103.81841 23450 ft 462 kts 265°
2026-05-07 07:53 15.15422 103.78514 23783 ft 466 kts 263°
2026-05-07 07:53 15.14980 103.75177 24137 ft 468 kts 262°
2026-05-07 07:54 15.14513 103.71833 24521 ft 470 kts 262°
2026-05-07 07:54 15.14044 103.68516 24890 ft 472 kts 262°
2026-05-07 07:54 15.13566 103.65142 25247 ft 475 kts 262°
2026-05-07 07:54 15.13084 103.61734 25603 ft 477 kts 262°
2026-05-07 07:55 15.12602 103.58326 25976 ft 479 kts 262°
2026-05-07 07:55 15.12118 103.54898 26327 ft 481 kts 262°
2026-05-07 07:55 15.11631 103.51459 26686 ft 483 kts 262°
2026-05-07 07:55 15.11143 103.48013 27193 ft 482 kts 262°
2026-05-07 07:56 15.10656 103.44587 27743 ft 479 kts 262°
2026-05-07 07:56 15.10172 103.41170 28264 ft 478 kts 262°
2026-05-07 07:56 15.09688 103.37765 28755 ft 477 kts 262°
2026-05-07 07:56 15.09206 103.34368 29288 ft 475 kts 262°
2026-05-07 07:57 15.08724 103.30982 29810 ft 474 kts 262°
2026-05-07 07:57 15.08244 103.27612 30239 ft 472 kts 262°
2026-05-07 07:57 15.07764 103.24246 30688 ft 470 kts 262°
2026-05-07 07:57 15.07286 103.20900 31152 ft 468 kts 262°
2026-05-07 07:58 15.06816 103.17614 31637 ft 465 kts 262°
2026-05-07 07:58 15.06344 103.14315 32134 ft 462 kts 262°
2026-05-07 07:58 15.05873 103.11025 32560 ft 461 kts 262°
2026-05-07 07:58 15.05401 103.07737 32900 ft 462 kts 262°
2026-05-07 07:59 15.04927 103.04436 33238 ft 463 kts 262°
2026-05-07 07:59 15.04452 103.01133 33594 ft 464 kts 262°
2026-05-07 07:59 15.03976 102.97830 33817 ft 464 kts 262°
2026-05-07 08:00 15.03022 102.91215 33823 ft 464 kts 262°
2026-05-07 08:00 15.02067 102.84608 33825 ft 464 kts 261°
2026-05-07 08:01 15.01110 102.78001 33828 ft 464 kts 261°
2026-05-07 08:01 15.00150 102.71388 33831 ft 464 kts 261°
2026-05-07 08:02 14.99188 102.64778 33821 ft 464 kts 261°
2026-05-07 08:02 14.98711 102.61507 33644 ft 465 kts 261°
2026-05-07 08:02 14.98230 102.58205 33382 ft 463 kts 261°
2026-05-07 08:02 14.97749 102.54915 33119 ft 461 kts 261°
2026-05-07 08:03 14.97270 102.51637 32869 ft 460 kts 261°
2026-05-07 08:03 14.96791 102.48369 32618 ft 459 kts 261°
2026-05-07 08:03 14.96313 102.45101 32365 ft 459 kts 261°
2026-05-07 08:03 14.95832 102.41821 32117 ft 461 kts 261°
2026-05-07 08:04 14.95349 102.38535 31880 ft 462 kts 261°
2026-05-07 08:04 14.94865 102.35241 31643 ft 464 kts 262°
2026-05-07 08:04 14.94379 102.31934 31405 ft 465 kts 262°
2026-05-07 08:04 14.93890 102.28618 31169 ft 466 kts 262°
2026-05-07 08:05 14.93400 102.25295 30937 ft 467 kts 262°
2026-05-07 08:05 14.92910 102.21965 30699 ft 469 kts 262°
2026-05-07 08:05 14.92344 102.18631 30470 ft 471 kts 259°
2026-05-07 08:05 14.91598 102.15324 30140 ft 473 kts 255°
2026-05-07 08:06 14.90666 102.12052 29638 ft 475 kts 252°
2026-05-07 08:06 14.89547 102.08836 28988 ft 475 kts 249°
2026-05-07 08:06 14.88266 102.05683 28348 ft 475 kts 247°
2026-05-07 08:06 14.86966 102.02585 27675 ft 476 kts 246°
2026-05-07 08:07 14.85641 101.99444 26980 ft 477 kts 246°
2026-05-07 08:07 14.84312 101.96296 26267 ft 478 kts 246°
2026-05-07 08:07 14.82979 101.93136 25676 ft 477 kts 246°
2026-05-07 08:07 14.81659 101.90003 25205 ft 473 kts 246°
2026-05-07 08:08 14.80345 101.86885 24685 ft 471 kts 246°
2026-05-07 08:08 14.79041 101.83788 24204 ft 468 kts 246°
2026-05-07 08:08 14.77745 101.80714 23742 ft 464 kts 246°
2026-05-07 08:08 14.76458 101.77660 23253 ft 461 kts 246°
2026-05-07 08:09 14.75181 101.74628 22732 ft 458 kts 246°
2026-05-07 08:09 14.73913 101.71623 22257 ft 453 kts 246°
2026-05-07 08:09 14.72659 101.68651 21800 ft 448 kts 246°
2026-05-07 08:09 14.71418 101.65711 21356 ft 444 kts 246°
2026-05-07 08:10 14.70190 101.62801 20924 ft 440 kts 246°
2026-05-07 08:10 14.68969 101.59913 20484 ft 436 kts 246°
2026-05-07 08:10 14.67761 101.57055 20046 ft 432 kts 246°
2026-05-07 08:10 14.66965 101.55171 19761 ft 430 kts 246°
2026-05-07 08:11 14.65371 101.51403 19179 ft 426 kts 246°
2026-05-07 08:11 14.64586 101.49548 18911 ft 424 kts 246°
2026-05-07 08:11 14.63006 101.45826 18302 ft 421 kts 245°
2026-05-07 08:11 14.61737 101.43153 17822 ft 418 kts 242°
2026-05-07 08:12 14.60302 101.40529 17431 ft 421 kts 239°
2026-05-07 08:12 14.58814 101.37934 17021 ft 418 kts 238°
2026-05-07 08:12 14.57809 101.36193 16737 ft 416 kts 238°
2026-05-07 08:12 14.55855 101.32809 16155 ft 412 kts 238°
2026-05-07 08:13 14.54870 101.31101 16018 ft 404 kts 238°
2026-05-07 08:13 14.53455 101.28647 15895 ft 391 kts 238°
2026-05-07 08:13 14.52088 101.26274 15771 ft 378 kts 238°
2026-05-07 08:13 14.50786 101.23968 15651 ft 366 kts 242°
2026-05-07 08:14 14.49805 101.21579 15526 ft 357 kts 251°
2026-05-07 08:14 14.49201 101.19099 15153 ft 357 kts 259°
2026-05-07 08:14 14.48800 101.16572 14782 ft 355 kts 261°
2026-05-07 08:14 14.48438 101.14052 14412 ft 354 kts 261°
2026-05-07 08:15 14.48078 101.11576 14060 ft 352 kts 261°
2026-05-07 08:15 14.47711 101.09115 13943 ft 340 kts 261°
2026-05-07 08:15 14.47352 101.06745 13853 ft 328 kts 261°
2026-05-07 08:15 14.47003 101.04459 13709 ft 319 kts 261°
2026-05-07 08:16 14.46655 101.02189 13318 ft 319 kts 261°
2026-05-07 08:16 14.46308 100.99931 12947 ft 318 kts 261°
2026-05-07 08:16 14.45963 100.97685 12628 ft 315 kts 261°
2026-05-07 08:16 14.45621 100.95461 12308 ft 312 kts 261°
2026-05-07 08:17 14.45282 100.93259 12005 ft 309 kts 261°
2026-05-07 08:17 14.44947 100.91074 11687 ft 306 kts 261°
2026-05-07 08:17 14.44614 100.88918 11377 ft 302 kts 261°
2026-05-07 08:17 14.44286 100.86785 11053 ft 300 kts 261°
2026-05-07 08:18 14.43959 100.84664 10747 ft 298 kts 261°
2026-05-07 08:18 14.43633 100.82548 10438 ft 297 kts 261°
2026-05-07 08:18 14.43309 100.80446 10129 ft 296 kts 261°
2026-05-07 08:18 14.42986 100.78351 9827 ft 295 kts 261°
2026-05-07 08:19 14.42663 100.76261 9499 ft 294 kts 261°
2026-05-07 08:19 14.42341 100.74181 9177 ft 292 kts 261°
2026-05-07 08:19 14.42022 100.72111 8870 ft 291 kts 261°
2026-05-07 08:19 14.41704 100.70057 8567 ft 289 kts 261°
2026-05-07 08:20 14.41388 100.68016 8272 ft 287 kts 261°
2026-05-07 08:20 14.41080 100.66023 8097 ft 279 kts 261°
2026-05-07 08:20 14.40779 100.64089 8039 ft 267 kts 259°
2026-05-07 08:20 14.40117 100.62346 7924 ft 261 kts 228°
2026-05-07 08:21 14.38652 100.61304 7769 ft 258 kts 194°
2026-05-07 08:21 14.36892 100.61232 7444 ft 253 kts 164°
2026-05-07 08:21 14.35211 100.61733 7198 ft 250 kts 161°
2026-05-07 08:21 14.33546 100.62243 6932 ft 249 kts 162°
2026-05-07 08:22 14.31886 100.62738 6654 ft 247 kts 162°
2026-05-07 08:22 14.30235 100.63220 6388 ft 246 kts 162°
2026-05-07 08:22 14.28591 100.63695 6117 ft 245 kts 163°
2026-05-07 08:22 14.26954 100.64164 5839 ft 244 kts 163°
2026-05-07 08:23 14.25324 100.64631 5574 ft 243 kts 163°
2026-05-07 08:23 14.23700 100.65094 5301 ft 242 kts 163°
2026-05-07 08:23 14.22080 100.65556 5037 ft 241 kts 163°
2026-05-07 08:23 14.20469 100.66015 4773 ft 239 kts 163°
2026-05-07 08:24 14.18870 100.66470 4506 ft 238 kts 163°
2026-05-07 08:24 14.17279 100.66925 4240 ft 237 kts 164°
2026-05-07 08:24 14.15691 100.67377 3972 ft 236 kts 164°
2026-05-07 08:24 14.14110 100.67826 3707 ft 235 kts 164°
2026-05-07 08:25 14.12533 100.68274 3444 ft 235 kts 164°
2026-05-07 08:25 14.10960 100.68722 3195 ft 234 kts 164°
2026-05-07 08:25 14.09395 100.69165 2921 ft 233 kts 164°
2026-05-07 08:25 14.07809 100.69426 2643 ft 231 kts 187°
2026-05-07 08:26 14.04867 100.68217 2573 ft 227 kts 209°
2026-05-07 08:26 14.03547 100.67420 2391 ft 214 kts 209°
2026-05-07 08:26 14.02284 100.66673 2099 ft 204 kts 208°
2026-05-07 08:27 14.01079 100.65988 1809 ft 191 kts 207°
2026-05-07 08:27 13.99959 100.65361 1582 ft 176 kts 207°
2026-05-07 08:27 13.98928 100.64783 1374 ft 163 kts 207°
2026-05-07 08:27 13.97944 100.64231 1173 ft 160 kts 207°
2026-05-07 08:28 13.96979 100.63688 993 ft 157 kts 207°
2026-05-07 08:28 13.96021 100.63148 802 ft 156 kts 207°
2026-05-07 08:28 13.95069 100.62606 605 ft 156 kts 207°
2026-05-07 08:28 13.94118 100.62072 374 ft 155 kts 206°
2026-05-07 08:29 13.93171 100.61541 180 ft 155 kts 207°
2026-05-07 08:29 13.92235 100.61016 28 ft 148 kts 207°
2026-05-07 08:29 13.91492 100.60599 23 ft 94 kts 208°
2026-05-07 08:29 13.91048 100.60350 29 ft 60 kts 208°
2026-05-07 08:30 13.90728 100.60162 29 ft 41 kts 217°
2026-05-07 08:30 13.90601 100.60018 26 ft 12 kts 241°
2026-05-07 08:30 13.90601 100.59949 28 ft 4 kts 312°
2026-05-07 08:30 13.90636 100.59941 30 ft 6 kts
2026-05-07 08:31 13.90687 100.59958 26 ft 9 kts 29°
2026-05-07 08:31 13.90752 100.59996 28 ft 12 kts 28°
2026-05-07 08:31 13.90836 100.60042 29 ft 15 kts 28°
2026-05-07 08:31 13.90939 100.60100 27 ft 19 kts 28°
2026-05-07 08:32 13.91062 100.60169 28 ft 21 kts 28°
2026-05-07 08:32 13.91189 100.60240 27 ft 17 kts 28°
2026-05-07 08:32 13.91301 100.60303 28 ft 20 kts 28°
2026-05-07 08:32 13.91432 100.60376 28 ft 23 kts 28°
2026-05-07 08:33 13.91579 100.60459 29 ft 25 kts 28°
2026-05-07 08:33 13.91738 100.60548 27 ft 24 kts 28°
2026-05-07 08:33 13.91828 100.60598 29 ft 12 kts 28°
2026-05-07 08:33 13.91913 100.60646 29 ft 15 kts 28°